| time (UTC) | temp C | wind direction | speed KPH | gust KPH | rain 1hr cm | rain 24hr cm | rain mn cm | humidity % | barometer mb |
| 20260509044621 | 21 | 138 | 0.0 | 1.6 | 0.00 | 0.43 | 0.43 | 85 | 1010.5 |
| 20260509043529 | 21 | 137 | 0.0 | 1.6 | 0.00 | 0.43 | 0.43 | 83 | 1011.0 |
| 20260509042537 | 21 | 138 | 0.0 | 1.6 | 0.00 | 0.43 | 0.43 | 83 | 1011.0 |
| 20260509041527 | 22 | 138 | 0.0 | 1.6 | 0.00 | 0.43 | 0.43 | 82 | 1010.7 |
| 20260509040522 | 22 | 142 | 1.6 | 6.4 | 0.00 | 0.43 | 0.43 | 83 | 1010.2 |
| 20260509035518 | 22 | 150 | 3.2 | 9.7 | 0.00 | 0.43 | 0.43 | 82 | 1010.1 |
| 20260509034531 | 22 | 155 | 3.2 | 9.7 | 0.00 | 0.43 | 0.43 | 80 | 1010.3 |
| 20260509033524 | 22 | 162 | 3.2 | 9.7 | 0.00 | 0.43 | 0.43 | 80 | 1010.1 |
| 20260509032521 | 23 | 147 | 1.6 | 4.8 | 0.00 | 0.43 | 0.43 | 79 | 1010.0 |
| 20260509031517 | 23 | 137 | 0.0 | 3.2 | 0.00 | 0.43 | 0.43 | 78 | 1010.0 |
| 20260509030531 | 23 | 123 | 1.6 | 4.8 | 0.00 | 0.43 | 0.43 | 78 | 1009.9 |
| 20260509025527 | 23 | 161 | 3.2 | 11.3 | 0.00 | 0.43 | 0.43 | 78 | 1009.3 |
| 20260509024522 | 23 | 164 | 3.2 | 6.4 | 0.00 | 0.43 | 0.43 | 78 | 1009.3 |
| 20260509023518 | 23 | 146 | 3.2 | 4.8 | 0.00 | 0.43 | 0.43 | 77 | 1009.5 |
| 20260509022527 | 23 | 149 | 1.6 | 4.8 | 0.00 | 0.43 | 0.43 | 76 | 1009.4 |
| 20260509021523 | 23 | 158 | 1.6 | 3.2 | 0.00 | 0.43 | 0.43 | 76 | 1009.4 |
| 20260509020538 | 23 | 160 | 1.6 | 4.8 | 0.00 | 0.43 | 0.43 | 76 | 1009.3 |
| 20260509015528 | 23 | 152 | 1.6 | 4.8 | 0.00 | 0.43 | 0.43 | 76 | 1009.2 |
| 20260509014523 | 23 | 139 | 0.0 | 1.6 | 0.00 | 0.43 | 0.43 | 75 | 1009.2 |
| 20260509013519 | 23 | 159 | 1.6 | 4.8 | 0.00 | 0.43 | 0.43 | 74 | 1009.0 |
| 20260509012529 | 23 | 139 | 3.2 | 6.4 | 0.00 | 0.43 | 0.43 | 74 | 1008.9 |
| 20260509011524 | 23 | 146 | 3.2 | 6.4 | 0.00 | 0.43 | 0.43 | 73 | 1008.8 |
| 20260509010520 | 24 | 169 | 3.2 | 12.9 | 0.00 | 0.43 | 0.43 | 74 | 1008.7 |
| 20260509005535 | 24 | 148 | 0.0 | 1.6 | 0.00 | 0.43 | 0.43 | 73 | 1008.7 |
| 20260509004545 | 25 | 152 | 1.6 | 3.2 | 0.00 | 0.43 | 0.43 | 71 | 1008.5 |
| 20260509003541 | 25 | 133 | 1.6 | 4.8 | 0.00 | 0.43 | 0.43 | 70 | 1008.4 |
| 20260509002516 | 25 | 111 | 3.2 | 4.8 | 0.00 | 0.43 | 0.43 | 69 | 1008.4 |
| 20260509001607 | 25 | 105 | 3.2 | 4.8 | 0.00 | 0.43 | 0.43 | 68 | 1008.5 |
| 20260509000522 | 25 | 105 | 4.8 | 6.4 | 0.00 | 0.43 | 0.43 | 68 | 1008.6 |
| 20260508235537 | 25 | 133 | 3.2 | 11.3 | 0.00 | 0.43 | 0.43 | 67 | 1008.6 |
| 20260508234528 | 26 | 165 | 3.2 | 6.4 | 0.00 | 0.43 | 0.43 | 67 | 1008.6 |
| 20260508233523 | 26 | 158 | 1.6 | 6.4 | 0.00 | 0.43 | 0.43 | 66 | 1008.8 |
| 20260508232518 | 26 | 170 | 3.2 | 11.3 | 0.00 | 0.43 | 0.43 | 65 | 1008.8 |
| 20260508231529 | 27 | 163 | 4.8 | 12.9 | 0.00 | 0.43 | 0.43 | 63 | 1008.7 |
| 20260508230524 | 27 | 170 | 4.8 | 20.9 | 0.00 | 0.43 | 0.43 | 61 | 1008.7 |
| 20260508225519 | 27 | 160 | 4.8 | 12.9 | 0.00 | 0.43 | 0.43 | 62 | 1008.7 |
| 20260508224530 | 27 | 114 | 1.6 | 6.4 | 0.00 | 0.43 | 0.43 | 62 | 1008.7 |
| 20260508223545 | 27 | 127 | 3.2 | 9.7 | 0.00 | 0.43 | 0.43 | 62 | 1008.7 |
| 20260508222520 | 27 | 129 | 1.6 | 6.4 | 0.00 | 0.43 | 0.43 | 62 | 1008.9 |
| 20260508221536 | 27 | 117 | 1.6 | 6.4 | 0.00 | 0.43 | 0.43 | 62 | 1009.0 |
| 20260508220526 | 26 | 135 | 1.6 | 6.4 | 0.00 | 0.43 | 0.43 | 64 | 1009.2 |
| 20260508215522 | 26 | 164 | 1.6 | 3.2 | 0.00 | 0.43 | 0.43 | 64 | 1009.3 |
| 20260508214517 | 25 | 249 | 0.0 | 1.6 | 0.00 | 0.43 | 0.43 | 67 | 1009.5 |
| 20260508213528 | 24 | 242 | 1.6 | 3.2 | 0.18 | 0.43 | 0.43 | 69 | 1009.7 |
| 20260508212523 | 23 | 275 | 0.0 | 3.2 | 0.33 | 0.43 | 0.43 | 73 | 1009.9 |
| 20260508211518 | 23 | 271 | 1.6 | 6.4 | 0.43 | 0.43 | 0.43 | 73 | 1010.0 |
| 20260508210528 | 22 | 245 | 3.2 | 6.4 | 0.43 | 0.43 | 0.43 | 75 | 1010.2 |
| 20260508205524 | 21 | 155 | 6.4 | 20.9 | 0.43 | 0.43 | 0.43 | 78 | 1009.3 |
| 20260508204519 | 21 | 136 | 12.9 | 30.6 | 0.43 | 0.43 | 0.43 | 79 | 1008.4 |
| 20260508203549 | 22 | 146 | 6.4 | 17.7 | 0.25 | 0.25 | 0.25 | 75 | 1010.3 |
| 20260508202545 | 23 | 141 | 4.8 | 11.3 | 0.13 | 0.13 | 0.13 | 68 | 1011.0 |
| 20260508201520 | 23 | 175 | 6.4 | 12.9 | 0.00 | 0.00 | 0.00 | 61 | 1011.1 |
| 20260508200516 | 25 | 155 | 1.6 | 11.3 | 0.00 | 0.00 | 0.00 | 58 | 1011.6 |
| 20260508195527 | 25 | 160 | 4.8 | 12.9 | 0.00 | 0.00 | 0.00 | 55 | 1011.4 |
| 20260508194522 | 26 | 174 | 4.8 | 14.5 | 0.00 | 0.00 | 0.00 | 52 | 1011.5 |
| 20260508193517 | 27 | 158 | 4.8 | 14.5 | 0.00 | 0.00 | 0.00 | 49 | 1011.4 |
| 20260508192527 | 28 | 157 | 3.2 | 12.9 | 0.00 | 0.00 | 0.00 | 47 | 1011.3 |
| 20260508191522 | 27 | 145 | 6.4 | 12.9 | 0.00 | 0.00 | 0.00 | 48 | 1011.5 |
| 20260508190518 | 27 | 157 | 4.8 | 14.5 | 0.00 | 0.00 | 0.00 | 50 | 1011.7 |
| 20260508185528 | 27 | 165 | 4.8 | 16.1 | 0.00 | 0.00 | 0.00 | 48 | 1011.8 |
| 20260508184524 | 27 | 159 | 6.4 | 14.5 | 0.00 | 0.00 | 0.00 | 49 | 1011.8 |
| 20260508183519 | 27 | 167 | 6.4 | 14.5 | 0.00 | 0.00 | 0.00 | 48 | 1011.9 |
| 20260508182529 | 27 | 151 | 6.4 | 12.9 | 0.00 | 0.00 | 0.00 | 48 | 1012.2 |
| 20260508181525 | 28 | 136 | 4.8 | 12.9 | 0.00 | 0.00 | 0.00 | 46 | 1012.4 |
| 20260508180520 | 29 | 156 | 4.8 | 14.5 | 0.00 | 0.00 | 0.00 | 45 | 1012.4 |
| 20260508175515 | 29 | 141 | 6.4 | 12.9 | 0.00 | 0.00 | 0.00 | 44 | 1012.2 |
| 20260508174546 | 27 | 132 | 4.8 | 11.3 | 0.00 | 0.00 | 0.00 | 47 | 1012.3 |
| 20260508173521 | 27 | 120 | 6.4 | 11.3 | 0.00 | 0.00 | 0.00 | 48 | 1012.9 |
| 20260508172516 | 27 | 153 | 3.2 | 9.7 | 0.00 | 0.00 | 0.00 | 48 | 1012.9 |
| 20260508171547 | 27 | 135 | 3.2 | 9.7 | 0.00 | 0.00 | 0.00 | 47 | 1013.2 |
| 20260508170542 | 27 | 137 | 4.8 | 11.3 | 0.00 | 0.00 | 0.00 | 46 | 1013.4 |
| 20260508165517 | 28 | 129 | 4.8 | 11.3 | 0.00 | 0.00 | 0.00 | 45 | 1013.3 |
| 20260508164608 | 27 | 133 | 8.0 | 16.1 | 0.00 | 0.00 | 0.00 | 45 | 1013.2 |
| 20260508163523 | 27 | 123 | 8.0 | 12.9 | 0.00 | 0.00 | 0.00 | 46 | 1013.4 |
| 20260508162518 | 27 | 128 | 6.4 | 12.9 | 0.00 | 0.00 | 0.00 | 46 | 1013.6 |
| 20260508161529 | 26 | 111 | 6.4 | 12.9 | 0.00 | 0.00 | 0.00 | 50 | 1013.9 |
| 20260508160524 | 23 | 104 | 4.8 | 11.3 | 0.00 | 0.00 | 0.00 | 56 | 1014.1 |
| 20260508155520 | 22 | 144 | 3.2 | 9.7 | 0.00 | 0.00 | 0.00 | 58 | 1014.4 |
| 20260508154515 | 22 | 139 | 3.2 | 4.8 | 0.00 | 0.00 | 0.00 | 59 | 1014.5 |
| 20260508153525 | 22 | 128 | 3.2 | 6.4 | 0.00 | 0.00 | 0.00 | 59 | 1014.8 |
| 20260508152520 | 21 | 138 | 1.6 | 3.2 | 0.00 | 0.00 | 0.00 | 60 | 1014.8 |
| 20260508151536 | 21 | 138 | 3.2 | 6.4 | 0.00 | 0.00 | 0.00 | 59 | 1014.7 |
| 20260508150606 | 22 | 166 | 1.6 | 4.8 | 0.00 | 0.00 | 0.00 | 58 | 1014.8 |
| 20260508145601 | 22 | 157 | 3.2 | 6.4 | 0.00 | 0.00 | 0.00 | 55 | 1014.7 |
| 20260508144517 | 23 | 132 | 1.6 | 6.4 | 0.00 | 0.00 | 0.00 | 55 | 1014.7 |
| 20260508143547 | 23 | 119 | 3.2 | 4.8 | 0.00 | 0.00 | 0.00 | 53 | 1014.7 |
| 20260508142522 | 23 | 104 | 3.2 | 4.8 | 0.00 | 0.00 | 0.00 | 52 | 1014.8 |
| 20260508141538 | 25 | 86 | 1.6 | 4.8 | 0.00 | 0.00 | 0.00 | 48 | 1014.7 |
| 20260508140528 | 29 | 136 | 3.2 | 6.4 | 0.00 | 0.00 | 0.00 | 40 | 1014.8 |
| 20260508135524 | 28 | 113 | 4.8 | 11.3 | 0.00 | 0.00 | 0.00 | 41 | 1014.8 |
| 20260508134519 | 27 | 103 | 6.4 | 11.3 | 0.00 | 0.00 | 0.00 | 44 | 1014.8 |
| 20260508133529 | 26 | 129 | 4.8 | 12.9 | 0.00 | 0.00 | 0.00 | 47 | 1014.8 |
| 20260508132525 | 23 | 114 | 4.8 | 11.3 | 0.00 | 0.00 | 0.00 | 54 | 1014.8 |
| 20260508131520 | 20 | 128 | 1.6 | 4.8 | 0.00 | 0.00 | 0.00 | 72 | 1014.9 |
| 20260508130516 | 17 | 290 | 0.0 | 1.6 | 0.00 | 0.00 | 0.00 | 81 | 1015.1 |
| 20260508125546 | 16 | 290 | 0.0 | 1.6 | 0.00 | 0.00 | 0.00 | 80 | 1015.2 |
| 20260508124521 | 16 | 290 | 0.0 | 1.6 | 0.00 | 0.00 | 0.00 | 82 | 1015.3 |
| 20260508123517 | 15 | 290 | 0.0 | 1.6 | 0.00 | 0.00 | 0.00 | 83 | 1015.0 |
| 20260508122527 | 15 | 290 | 0.0 | 1.6 | 0.00 | 0.00 | 0.00 | 84 | 1014.9 |
| 20260508121542 | 15 | 290 | 0.0 | 1.6 | 0.00 | 0.00 | 0.00 | 84 | 1014.9 |
| 20260508120518 | 14 | 0.0 | 0.0 | 0.00 | 0.00 | 0.00 | 86 | 1014.7 | |
| 20260508115529 | 14 | 0.0 | 0.0 | 0.00 | 0.00 | 0.00 | 86 | 1014.7 | |
| 20260508114523 | 14 | 290 | 0.0 | 1.6 | 0.00 | 0.00 | 0.00 | 84 | 1014.9 |
| 20260508113518 | 14 | 0.0 | 0.0 | 0.00 | 0.00 | 0.00 | 84 | 1015.0 | |
| 20260508112529 | 14 | 290 | 0.0 | 1.6 | 0.00 | 0.00 | 0.00 | 83 | 1015.0 |
| 20260508111524 | 15 | 237 | 1.6 | 3.2 | 0.00 | 0.00 | 0.00 | 83 | 1015.0 |
| 20260508110520 | 15 | 169 | 1.6 | 3.2 | 0.00 | 0.00 | 0.00 | 83 | 1014.8 |
| 20260508105535 | 15 | 174 | 1.6 | 6.4 | 0.00 | 0.00 | 0.00 | 84 | 1014.8 |
| 20260508104526 | 15 | 245 | 0.0 | 4.8 | 0.00 | 0.00 | 0.00 | 84 | 1014.8 |
| 20260508103521 | 15 | 156 | 3.2 | 4.8 | 0.00 | 0.00 | 0.00 | 85 | 1014.4 |
| 20260508102516 | 15 | 173 | 3.2 | 11.3 | 0.00 | 0.00 | 0.00 | 85 | 1014.5 |
| 20260508101527 | 14 | 153 | 1.6 | 3.2 | 0.00 | 0.00 | 0.00 | 86 | 1014.4 |
| 20260508100542 | 14 | 84 | 0.0 | 1.6 | 0.00 | 0.00 | 0.00 | 85 | 1014.3 |
| 20260508095517 | 14 | 84 | 0.0 | 3.2 | 0.00 | 0.00 | 0.00 | 84 | 1014.3 |
| 20260508094528 | 15 | 123 | 0.0 | 3.2 | 0.00 | 0.00 | 0.00 | 84 | 1014.3 |
| 20260508093523 | 15 | 140 | 1.6 | 3.2 | 0.00 | 0.00 | 0.00 | 84 | 1014.3 |
| 20260508092519 | 15 | 160 | 1.6 | 4.8 | 0.00 | 0.00 | 0.00 | 85 | 1014.4 |
| 20260508091530 | 15 | 128 | 0.0 | 1.6 | 0.00 | 0.00 | 0.00 | 84 | 1014.4 |
| 20260508090525 | 15 | 0.0 | 0.0 | 0.00 | 0.00 | 0.00 | 83 | 1014.8 | |
| 20260508085520 | 15 | 127 | 0.0 | 1.6 | 0.00 | 0.00 | 0.00 | 84 | 1014.5 |
| 20260508084543 | 15 | 145 | 1.6 | 4.8 | 0.00 | 0.00 | 0.00 | 84 | 1014.4 |
| 20260508083519 | 15 | 124 | 4.8 | 6.4 | 0.00 | 0.00 | 0.00 | 83 | 1014.4 |
| 20260508082529 | 16 | 109 | 1.6 | 3.2 | 0.00 | 0.00 | 0.00 | 80 | 1014.9 |
| 20260508081528 | 16 | 125 | 1.6 | 3.2 | 0.00 | 0.00 | 0.00 | 80 | 1015.0 |
| 20260508080527 | 16 | 218 | 0.0 | 1.6 | 0.00 | 0.00 | 0.00 | 80 | 1015.4 |
| 20260508075526 | 16 | 0.0 | 0.0 | 0.00 | 0.00 | 0.00 | 79 | 1015.6 | |
| 20260508074521 | 16 | 0.0 | 0.0 | 0.00 | 0.00 | 0.00 | 80 | 1015.8 | |
| 20260508073520 | 16 | 260 | 0.0 | 1.6 | 0.00 | 0.00 | 0.00 | 81 | 1015.8 |
| 20260508072531 | 16 | 258 | 1.6 | 3.2 | 0.00 | 0.00 | 0.00 | 80 | 1015.5 |
| 20260508071524 | 16 | 256 | 0.0 | 1.6 | 0.00 | 0.00 | 0.00 | 78 | 1015.4 |
| 20260508070538 | 16 | 0.0 | 0.0 | 0.00 | 0.00 | 0.00 | 77 | 1015.3 | |
| 20260508065527 | 16 | 165 | 0.0 | 1.6 | 0.00 | 0.00 | 0.00 | 79 | 1015.3 |
| 20260508064031 | 16 | 165 | 0.0 | 1.6 | 0.00 | 0.00 | 0.00 | 77 | 1015.6 |
| 20260508063026 | 16 | 165 | 0.0 | 1.6 | 0.00 | 0.00 | 0.00 | 77 | 1015.7 |
| 20260508062041 | 16 | 165 | 0.0 | 1.6 | 0.00 | 0.00 | 0.00 | 77 | 1015.8 |
| 20260508061024 | 16 | 0.0 | 0.0 | 0.00 | 0.00 | 0.00 | 78 | 1016.0 | |
| 20260508060030 | 16 | 166 | 0.0 | 1.6 | 0.00 | 0.00 | 0.00 | 79 | 1016.1 |
| 20260508055022 | 16 | 137 | 0.0 | 1.6 | 0.00 | 0.00 | 0.00 | 77 | 1016.0 |
| 20260508054056 | 16 | 0.0 | 0.0 | 0.00 | 0.00 | 0.00 | 75 | 1016.0 | |
| 20260508053053 | 16 | 0.0 | 0.0 | 0.00 | 0.00 | 0.00 | 76 | 1016.2 | |
| 20260508052030 | 16 | 0.0 | 0.0 | 0.00 | 0.00 | 0.00 | 74 | 1016.0 | |
| 20260508051024 | 16 | 0.0 | 0.0 | 0.00 | 0.00 | 0.00 | 73 | 1016.2 | |
| 20260508050032 | 16 | 133 | 0.0 | 1.6 | 0.00 | 0.00 | 0.00 | 73 | 1015.9 |